Temp
83 87 88 90 90 91 90 88 89 89 88 88 88 88 87 87 88 89 90 74 72 73 76 77 77 76 76 75 73 73 72 72 72 72 71 70 70 70 69 69 69 69 69
81 85 86 86 86 86 86 87 87 86 87 87 87 87 87 88 89 89 91 90 70 71 72 75 76 76 76 75 74 73 72 72 72 72 71 70 70 69 69 69 69 69 69
78 78 83 82 82 83 83 83 83 84 80 82 79 80 80 80 81 82 83 88 89 70 69 71 72 73 74 74 73 72 72 72 71 72 71 71 70 69 69 69 68 68 69
76 77 79 78 78 79 79 79 79 80 79 78 77 81 83 84 85 83 82 79 75 72 70 66 68 70 71 72 73 74 73 72 72 72 71 70 70 70 69 69 68 68 68
75 76 75 75 77 78 76 76 76 77 77 78 78 80 82 84 86 88 85 83 81 76 79 72 68 67 68 70 72 73 73 72 72 70 69 69 69 69 69 69 69 68 68
70 74 74 72 75 74 74 72 71 75 76 74 75 79 80 82 84 85 83 85 80 78 79 75 76 78 69 69 71 72 73 68 68 67 66 65 65 65 66 66 68 69 69
70 69 72 72 74 70 68 68 69 71 73 72 72 72 78 82 80 77 81 81 74 77 75 74 76 75 76 69 70 70 70 66 66 65 64 64 63 64 65 65 66 66 67
68 69 68 69 68 70 66 66 66 67 72 70 65 69 69 76 72 76 76 76 71 73 72 72 72 71 71 73 72 66 61 62 62 63 63 63 63 63 63 65 65 65 65
67 66 66 66 67 67 65 64 64 64 65 68 67 63 61 61 62 73 73 72 68 68 69 69 69 69 70 70 70 68 58 57 59 60 61 61 61 61 62 63 63 63 64
66 66 65 65 65 65 63 64 65 64 63 63 66 67 65 63 58 59 68 69 67 66 65 66 66 69 69 70 67 63 56 55 56 58 59 59 59 59 60 60 61 62 63
65 65 64 63 63 64 63 62 61 61 63 62 62 62 63 64 64 58 54 59 63 64 64 64 65 66 67 67 69 64 56 54 55 56 57 58 58 58 57 58 60 61 62
64 63 63 62 63 63 62 62 61 60 60 60 61 61 60 58 57 56 54 54 54 58 61 64 64 64 66 67 65 59 56 54 54 55 56 56 56 56 57 57 58 59 60
63 60 62 61 61 61 61 62 60 60 59 58 58 58 60 60 58 56 53 51 48 53 57 61 62 64 64 64 63 58 57 54 52 54 54 54 55 55 56 56 56 57 57
61 61 61 61 61 60 61 61 60 60 59 58 56 55 57 57 56 54 51 47 42 47 52 52 60 60 61 62 59 56 60 54 53 51 52 53 53 53 54 54 54 55 55
61 60 61 60 60 60 60 61 59 57 58 56 55 55 55 55 55 54 51 49 44 38 42 52 52 57 58 60 58 59 58 55 51 51 51 51 52 52 52 52 52 53 53
61 60 60 60 59 59 59 59 58 57 56 56 56 53 53 53 53 53 52 51 50 46 40 50 52 54 57 58 57 56 56 52 52 51 50 50 50 50 50 50 50 51 51
60 60 60 59 58 58 58 57 57 56 55 55 54 53 52 52 51 51 52 52 50 49 45 48 52 54 52 53 54 55 54 54 55 51 49 48 47 47 47 48 48 49 49
59 59 59 58 58 57 56 56 55 55 54 53 53 53 52 53 51 51 50 50 49 49 47 44 48 49 50 52 52 50 52 54 52 52 47 46 46 46 46 46 46 47 47
58 58 58 56 56 55 55 55 55 55 55 54 53 52 52 51 49 48 48 47 47 48 47 44 45 49 49 51 49 48 48 48 52 49 47 47 47 47 47 46 45 45 46
58 58 57 56 55 54 52 53 55 54 54 54 53 53 52 50 47 45 45 45 45 44 43 44 44 45 47 48 46 41 42 46 45 49 49 47 45 45 46 45 45 45 45
58 58 56 56 55 53 47 45 51 54 54 53 54 54 53 47 43 40 43 42 43 42 42 41 42 42 42 41 38 40 38 41 42 45 43 43 44 45 46 46 47 46 45
56 56 56 55 54 50 38 38 40 51 54 53 52 52 53 49 46 41 40 39 39 42 41 42 39 37 38 37 38 36 36 35 33 44 40 38 44 42 44 47 47 44 43
55 54 54 54 52 47 37 37 37 50 53 52 51 51 51 51 43 42 41 41 43 40 39 41 38 36 34 37 37 35 36 35 35 40 41 36 41 39 44 47 43 43 42
54 53 53 53 52 44 36 36 36 51 53 52 51 51 48 47 40 38 41 45 46 47 45 42 41 39 41 41 39 39 37 37 40 43 44 34 40 37 40 42 43 44 42
54 53 53 52 52 46 36 36 38 53 52 51 52 50 47 44 35 36 40 42 42 43 42 40 40 40 40 40 40 39 36 33 33 36 42 36 36 35 37 40 45 43 42
54 54 52 51 41 48 34 36 37 51 48 49 50 49 35 37 35 36 39 41 37 38 37 41 43 44 44 43 41 42 39 33 33 33 40 36 35 35 32 40 39 43 42
MSLP
1016.70 1016.43 1016.01 1016.00 1015.92 1015.69 1015.71 1015.75 1015.61 1015.52 1015.60 1015.56 1015.45 1015.43 1015.43 1015.39 1015.26 1015.06 1014.68 1014.74 1014.83 1014.99 1015.15 1015.29 1015.39 1015.43 1015.47 1015.49 1015.45 1015.35 1015.26 1015.19 1015.15 1015.12 1015.11 1015.10 1015.03 1014.93 1014.81 1014.70 1014.66 1014.65 1014.70
1017.70 1016.86 1016.52 1016.57 1016.67 1016.78 1016.54 1016.27 1015.89 1015.94 1015.64 1015.31 1015.24 1015.03 1014.92 1014.81 1014.63 1014.49 1014.15 1013.94 1014.31 1014.27 1014.41 1014.45 1014.58 1014.77 1014.86 1014.91 1015.02 1015.06 1015.02 1014.92 1014.78 1014.63 1014.50 1014.37 1014.25 1014.13 1014.04 1013.96 1013.89 1013.85 1013.80
1018.41 1018.20 1017.40 1017.48 1017.52 1017.49 1017.37 1016.95 1016.64 1016.10 1016.03 1015.72 1015.61 1015.32 1015.10 1014.91 1014.71 1014.45 1014.24 1013.96 1013.48 1013.70 1013.97 1013.92 1014.24 1014.36 1014.66 1014.87 1014.79 1014.70 1014.66 1014.56 1014.48 1014.37 1014.19 1014.00 1013.83 1013.74 1013.59 1013.36 1013.16 1013.06 1012.96
1019.01 1018.59 1018.29 1018.53 1018.63 1018.21 1018.03 1017.81 1017.50 1017.00 1016.68 1016.45 1016.29 1015.86 1015.24 1014.72 1014.33 1014.30 1014.25 1014.13 1014.47 1014.84 1015.02 1015.96 1015.42 1015.16 1015.04 1015.02 1014.92 1014.79 1014.54 1014.30 1014.09 1013.87 1013.73 1013.61 1013.45 1013.24 1012.99 1012.78 1012.65 1012.47 1012.23
1019.60 1019.11 1019.25 1019.33 1018.83 1018.55 1018.70 1018.62 1018.17 1017.75 1017.22 1016.85 1016.63 1015.96 1015.30 1014.72 1014.15 1013.64 1013.84 1014.29 1014.44 1014.66 1014.85 1014.88 1015.24 1014.97 1014.98 1015.02 1015.05 1014.80 1014.59 1014.49 1014.21 1014.09 1013.91 1013.63 1013.26 1012.85 1012.43 1012.08 1011.82 1011.64 1011.49
1020.39 1019.73 1019.83 1019.99 1019.44 1019.36 1019.45 1019.47 1019.05 1018.45 1017.87 1017.70 1017.32 1015.95 1015.32 1014.95 1014.48 1014.13 1014.33 1014.37 1014.92 1015.34 1015.15 1015.58 1015.55 1014.82 1014.89 1014.90 1014.82 1014.87 1014.52 1014.73 1014.77 1014.48 1014.30 1014.07 1013.67 1013.22 1012.64 1012.06 1011.47 1010.97 1010.60
1020.95 1020.64 1020.22 1020.26 1019.86 1020.26 1020.44 1020.24 1019.77 1019.03 1018.37 1018.49 1017.50 1016.77 1015.27 1014.58 1014.93 1015.59 1015.29 1015.22 1016.32 1016.08 1016.34 1016.47 1016.13 1015.97 1015.50 1015.39 1015.10 1014.81 1014.78 1015.10 1014.98 1014.71 1014.47 1014.21 1013.85 1013.20 1012.63 1012.03 1011.34 1010.78 1010.24
1021.41 1021.20 1021.10 1020.94 1020.95 1020.63 1020.98 1020.89 1020.61 1020.01 1019.04 1019.21 1018.97 1017.23 1015.94 1014.64 1016.17 1016.11 1016.35 1016.39 1017.13 1017.25 1017.20 1016.97 1016.72 1016.60 1016.29 1015.61 1015.05 1015.12 1015.60 1015.46 1015.25 1014.84 1014.41 1013.99 1013.53 1012.99 1012.54 1011.70 1011.24 1010.49 1010.03
1021.86 1022.01 1021.89 1021.79 1021.61 1021.48 1021.48 1021.53 1021.42 1020.97 1020.23 1019.94 1019.99 1019.93 1018.67 1017.94 1018.11 1016.65 1016.78 1017.44 1017.94 1018.13 1017.91 1017.47 1017.31 1017.00 1016.26 1015.88 1015.22 1015.23 1015.49 1015.52 1015.36 1015.04 1014.56 1014.03 1013.49 1012.92 1012.17 1011.29 1010.82 1010.09 1009.54
1022.56 1022.56 1022.55 1022.58 1022.31 1022.17 1022.23 1022.14 1022.10 1021.71 1021.42 1020.90 1020.63 1020.83 1020.92 1020.68 1019.67 1018.27 1017.73 1018.03 1018.68 1018.58 1018.54 1018.29 1017.78 1016.87 1016.54 1016.08 1015.65 1015.30 1015.45 1015.58 1015.32 1014.89 1014.41 1013.89 1013.34 1012.68 1011.84 1011.23 1010.47 1009.70 1009.01
1023.10 1023.05 1023.08 1022.91 1022.73 1022.63 1022.88 1022.79 1022.78 1022.53 1022.26 1022.14 1021.81 1021.60 1021.22 1020.93 1020.57 1020.54 1019.54 1019.22 1019.26 1019.21 1019.09 1018.65 1017.84 1017.39 1017.00 1016.40 1015.61 1015.33 1015.58 1015.50 1015.21 1014.71 1014.20 1013.64 1013.11 1012.35 1011.57 1010.72 1009.89 1009.10 1008.38
1023.03 1023.37 1023.24 1023.21 1023.32 1023.29 1023.37 1023.26 1023.26 1023.27 1023.21 1023.03 1022.85 1022.45 1022.32 1022.04 1021.78 1021.56 1021.02 1020.58 1020.32 1020.03 1019.60 1018.57 1018.23 1017.84 1017.18 1016.43 1016.24 1015.76 1015.53 1015.26 1014.70 1014.13 1013.55 1013.11 1012.50 1011.82 1010.99 1010.13 1009.27 1008.53 1007.83
1023.18 1023.70 1023.59 1023.73 1023.79 1024.00 1023.85 1023.70 1023.76 1023.69 1023.66 1023.71 1023.67 1023.56 1023.27 1022.97 1022.99 1022.75 1022.43 1021.93 1021.50 1020.77 1020.05 1019.48 1018.78 1017.99 1017.50 1016.87 1016.28 1015.94 1015.42 1014.87 1014.09 1013.47 1012.97 1012.35 1011.61 1010.95 1010.24 1009.53 1008.89 1008.27 1007.51
1023.62 1023.89 1024.17 1024.30 1024.39 1024.48 1024.28 1024.08 1024.21 1024.08 1024.22 1024.25 1024.59 1024.66 1024.24 1024.15 1024.08 1023.91 1023.64 1023.30 1022.26 1021.47 1020.55 1019.89 1018.89 1018.73 1018.09 1017.27 1016.69 1015.70 1014.65 1014.05 1013.51 1013.10 1012.30 1011.46 1010.67 1009.99 1009.36 1008.76 1008.18 1007.54 1006.93
1023.84 1024.27 1024.52 1024.68 1024.79 1024.87 1024.69 1024.34 1024.54 1024.73 1024.69 1024.96 1025.06 1025.10 1024.89 1024.75 1024.64 1024.47 1024.53 1024.22 1023.65 1022.06 1020.98 1019.90 1019.43 1018.88 1018.13 1017.13 1016.32 1015.48 1014.70 1013.84 1013.35 1012.41 1011.45 1010.66 1010.11 1009.48 1008.65 1007.95 1007.28 1006.52 1005.85
1024.08 1024.47 1024.76 1024.90 1025.10 1025.13 1024.99 1024.80 1024.86 1025.33 1025.26 1025.39 1025.47 1025.63 1025.49 1025.34 1025.11 1024.84 1024.76 1024.48 1024.08 1023.27 1021.65 1020.78 1019.61 1018.82 1017.87 1017.00 1016.02 1015.49 1014.54 1013.78 1012.56 1011.76 1010.86 1010.16 1009.41 1008.76 1007.98 1006.99 1006.08 1005.26 1004.56
1024.41 1024.65 1024.90 1025.13 1025.30 1025.31 1025.44 1025.36 1025.38 1025.57 1025.52 1025.69 1025.85 1025.78 1025.76 1025.79 1025.62 1025.39 1024.99 1024.49 1023.89 1023.23 1021.88 1020.51 1019.94 1018.81 1017.90 1016.82 1015.82 1015.08 1014.43 1013.50 1012.25 1011.55 1010.64 1009.50 1008.81 1007.99 1006.94 1005.92 1004.99 1004.11 1003.33
1024.75 1024.85 1025.05 1025.39 1025.65 1025.75 1025.93 1025.88 1025.84 1025.91 1025.93 1025.99 1026.08 1025.91 1025.91 1025.85 1025.57 1025.44 1025.22 1024.54 1024.07 1023.52 1022.64 1020.72 1019.94 1018.73 1017.93 1016.81 1015.89 1015.08 1014.11 1013.23 1012.30 1011.06 1010.29 1009.39 1008.15 1006.74 1005.72 1004.78 1003.85 1002.93 1002.08
1024.89 1025.14 1025.35 1025.72 1026.07 1026.33 1026.33 1026.19 1026.21 1026.25 1026.27 1026.33 1026.35 1026.13 1026.00 1026.12 1025.96 1025.96 1025.57 1025.10 1024.34 1023.78 1023.12 1021.99 1019.80 1019.12 1017.90 1017.01 1015.82 1014.94 1014.28 1013.02 1012.03 1011.02 1009.69 1008.45 1006.96 1005.80 1004.70 1003.92 1002.85 1001.86 1000.98
1024.90 1025.32 1025.73 1026.09 1026.40 1026.70 1027.02 1026.94 1026.57 1026.61 1026.55 1026.45 1026.38 1026.28 1026.27 1026.47 1026.67 1026.37 1025.94 1025.34 1024.71 1024.06 1023.36 1022.16 1020.80 1019.27 1018.21 1016.98 1016.79 1015.78 1013.05 1013.14 1011.50 1010.28 1008.98 1008.12 1006.53 1005.51 1004.01 1003.04 1001.85 1000.84 999.92
1025.22 1025.65 1025.97 1026.22 1026.57 1027.21 1028.45 1028.54 1027.58 1026.92 1026.67 1026.50 1026.34 1026.20 1026.13 1026.73 1026.80 1027.00 1026.60 1025.91 1025.18 1024.23 1023.32 1022.37 1021.04 1019.81 1018.57 1017.48 1017.02 1016.06 1014.77 1012.60 1011.53 1009.98 1008.54 1007.92 1005.82 1004.57 1003.25 1001.91 1000.53 999.60 998.93
1025.64 1025.85 1026.06 1026.41 1026.85 1028.09 1029.54 1029.39 1029.12 1027.44 1026.81 1026.64 1026.39 1026.24 1026.09 1026.05 1026.34 1026.58 1026.40 1025.92 1025.36 1024.38 1023.51 1022.42 1021.66 1020.66 1019.37 1018.77 1017.57 1016.64 1015.05 1013.04 1010.02 1010.08 1008.57 1006.86 1006.04 1004.13 1002.94 1001.51 1000.17 999.42 998.42
1025.75 1025.93 1026.25 1026.73 1027.51 1028.52 1029.59 1029.34 1029.10 1027.53 1026.91 1026.76 1026.58 1026.40 1026.23 1026.19 1026.81 1026.92 1026.20 1025.14 1024.23 1023.89 1023.57 1023.27 1022.12 1021.58 1020.31 1019.21 1017.97 1016.24 1015.23 1013.91 1011.83 1009.55 1008.25 1006.54 1005.43 1003.95 1002.83 1001.26 999.84 998.68 997.52
1025.62 1025.93 1026.46 1027.04 1027.62 1028.98 1029.66 1029.31 1028.70 1027.29 1026.78 1026.68 1026.60 1026.53 1026.77 1026.77 1027.60 1027.75 1026.57 1025.16 1024.19 1023.49 1023.17 1023.31 1022.56 1021.45 1020.37 1019.11 1018.25 1016.86 1015.10 1013.37 1011.73 1009.81 1008.50 1006.31 1005.00 1003.51 1002.24 1001.04 999.37 998.13 997.47
1025.46 1026.04 1026.52 1027.05 1027.46 1028.74 1029.67 1029.58 1029.01 1026.95 1026.87 1026.70 1026.45 1026.60 1027.13 1027.43 1028.41 1027.95 1026.76 1025.41 1024.54 1023.74 1023.49 1022.82 1021.89 1020.77 1019.63 1018.60 1017.61 1016.12 1014.56 1012.95 1010.95 1009.41 1008.09 1006.77 1005.02 1003.36 1002.06 1000.31 999.17 998.34 997.23
1025.39 1025.84 1026.47 1027.17 1027.73 1028.34 1029.89 1029.78 1029.23 1027.45 1027.32 1026.96 1026.69 1026.71 1028.08 1028.29 1028.30 1027.85 1026.97 1025.76 1025.02 1024.29 1023.47 1021.88 1020.85 1019.74 1018.90 1017.93 1017.03 1016.15 1014.65 1012.94 1011.20 1009.00 1007.88 1006.78 1005.28 1004.10 1001.28 1000.30 999.85 998.48 997.47
Wind_Speed
6 5 4 5 3 3 4 5 6 6 6 8 9 8 9 10 11 8 8 9 12 12 12 14 15 15 15 15 14 14 15 17 19 20 20 20 21 21 22 22 22 22 22
4 6 5 6 6 5 9 9 9 9 9 9 10 10 10 10 12 12 10 10 12 14 14 15 15 15 15 15 13 13 15 17 18 19 20 20 21 22 22 22 23 23 23
6 8 5 5 7 7 6 7 8 8 6 7 7 7 6 6 7 8 8 10 11 13 12 12 12 13 11 11 13 13 14 14 16 18 20 20 21 21 22 22 23 23 24
6 4 4 5 5 5 6 6 7 7 8 8 8 9 11 11 12 9 7 5 3 6 10 8 14 13 10 13 15 16 16 14 15 16 17 18 19 21 22 22 23 23 24
8 6 7 6 7 6 7 8 7 7 8 7 9 10 9 10 11 9 9 8 7 6 7 9 9 9 7 9 14 16 18 19 20 23 23 21 20 20 20 22 23 23 23
7 6 6 7 7 7 7 9 9 8 8 9 11 10 8 9 8 7 11 10 15 14 12 14 12 12 16 16 20 16 22 19 20 22 23 24 25 24 22 22 22 23 24
8 8 6 7 7 8 8 10 8 9 7 10 8 10 8 7 9 10 8 8 14 12 13 12 10 10 10 18 18 20 20 18 21 23 24 25 26 25 24 23 22 22 23
10 9 8 8 9 6 9 10 10 7 5 9 9 8 6 4 12 6 8 9 13 12 13 14 13 14 13 10 12 10 18 23 26 27 27 27 27 26 27 25 23 23 24
10 10 9 8 7 8 7 9 10 11 8 8 9 7 6 6 11 7 6 10 12 11 12 14 16 15 13 12 12 15 19 22 27 28 28 28 28 30 30 26 27 27 25
9 9 9 8 8 7 8 8 8 8 8 8 6 6 5 5 5 8 8 9 12 12 13 12 13 13 15 12 14 11 17 21 26 30 30 30 30 31 30 31 31 30 28
8 8 8 8 8 7 8 9 9 10 7 8 7 8 8 7 7 9 10 12 11 12 13 12 11 12 15 14 12 13 19 20 25 25 27 27 32 34 33 32 31 30 30
6 8 8 8 9 8 8 8 8 10 9 8 8 8 8 8 9 9 11 13 14 13 13 10 12 12 12 12 19 20 23 28 26 22 26 28 33 31 32 31 30 30 29
6 7 8 9 8 8 8 7 9 9 9 8 10 8 7 8 9 9 9 11 13 13 11 11 11 11 14 13 15 23 26 26 17 24 21 29 30 31 30 30 29 31 31
6 7 7 8 8 9 7 7 8 7 8 8 11 10 7 8 8 9 9 11 13 13 12 18 9 12 13 13 20 23 18 22 23 22 29 29 28 27 26 28 31 31 33
7 7 7 7 8 8 8 7 7 8 8 8 8 9 8 8 8 8 8 8 10 13 14 12 15 16 13 14 17 18 19 26 31 31 24 25 23 25 29 29 30 32 33
8 7 7 7 8 8 9 9 8 9 8 7 7 10 9 8 9 8 9 10 10 11 13 15 13 18 16 15 18 19 19 28 26 28 23 26 28 25 32 33 33 33 32
7 7 7 7 8 9 9 8 7 8 8 8 8 8 10 10 8 8 8 9 10 11 14 13 14 16 20 19 19 17 17 19 16 26 30 28 32 33 32 33 32 31 30
7 7 7 7 8 8 8 8 8 7 7 8 8 8 9 7 9 11 10 12 11 13 13 21 17 16 18 19 18 21 17 16 17 23 32 33 34 35 33 31 31 32 32
8 7 7 7 7 7 8 7 6 6 6 7 7 8 9 11 10 11 12 12 12 12 13 13 16 14 15 15 18 19 18 18 15 27 30 30 32 31 30 34 33 32 29
8 7 7 7 6 8 9 8 5 5 5 6 6 7 8 10 11 12 12 14 14 13 14 12 14 15 15 17 14 16 20 13 17 17 20 21 28 34 33 31 30 29 29
7 7 7 6 7 8 8 9 7 4 5 6 6 7 8 5 7 7 10 13 15 12 12 13 14 15 15 16 18 16 17 18 16 16 17 15 18 17 18 23 24 25 24
7 7 6 6 6 7 8 10 9 9 5 6 7 8 9 9 11 15 15 17 17 14 15 13 12 16 20 17 16 16 17 18 18 11 18 16 15 17 16 15 27 29 27
8 7 6 6 7 8 8 11 12 10 5 5 6 8 9 9 13 15 17 16 12 10 11 14 17 16 20 19 20 19 19 18 17 18 16 17 13 16 15 17 30 28 26
8 7 6 5 6 7 9 13 17 8 4 5 6 7 9 11 14 16 16 15 16 16 16 14 15 17 16 18 17 17 21 19 16 15 15 16 13 15 15 16 26 18 24
8 7 6 5 5 8 8 10 14 4 5 5 6 7 7 11 16 18 15 15 17 15 17 21 20 20 19 21 19 14 14 15 16 16 15 13 13 16 15 11 10 28 22
9 7 7 6 3 8 8 8 11 4 5 5 6 6 14 13 14 15 13 14 16 16 18 19 17 18 19 18 21 16 15 16 16 16 12 13 14 12 13 5 14 12 12
Wind_Direction
9 320 13 281 346 322 272 243 248 253 274 268 256 263 276 275 271 267 274 179 195 210 226 243 254 264 270 273 270 260 250 246 244 245 246 245 245 244 242 241 240 240 241
354 312 341 349 342 336 351 326 336 327 302 306 290 275 278 286 285 288 285 291 205 213 221 229 237 246 254 262 270 273 267 262 256 253 252 250 247 245 244 244 243 243 242
356 326 12 351 6 333 323 330 322 314 305 305 306 299 296 287 298 289 310 304 295 223 244 234 235 242 261 275 273 272 276 277 274 272 269 265 261 258 256 252 248 246 244
20 30 27 22 356 350 353 346 336 326 320 339 320 306 304 300 296 290 287 293 22 16 39 317 342 300 304 316 324 315 300 289 283 280 280 277 273 268 264 262 259 256 252
15 29 29 23 353 10 20 351 349 350 326 334 322 308 292 290 298 309 304 24 36 40 10 5 349 329 20 10 348 344 3 344 350 2 359 349 335 314 289 272 265 262 260
27 29 53 27 20 27 23 4 352 352 326 352 322 303 318 307 293 344 6 358 29 12 0 6 341 344 352 351 325 356 347 17 359 359 357 353 347 339 334 332 317 285 268
43 24 42 32 18 42 24 14 358 352 359 4 333 328 292 268 47 4 342 360 18 357 6 349 350 338 336 336 345 338 356 8 2 356 348 340 335 332 330 326 325 320 314
40 49 31 38 25 33 34 24 12 355 10 28 358 310 358 298 21 2 17 22 6 7 349 348 333 349 328 323 331 347 29 12 358 349 342 337 333 329 323 316 319 320 316
51 42 43 39 35 33 32 26 14 24 355 24 38 13 340 360 335 39 1 11 19 349 345 328 349 328 332 324 331 339 24 6 352 342 337 333 330 324 317 314 314 315 310
53 51 48 44 43 47 35 29 30 11 10 19 12 21 14 340 341 327 350 335 354 342 338 350 324 330 325 336 331 321 8 354 345 334 329 326 322 322 315 314 308 304 303
63 58 54 49 48 44 48 37 35 26 26 15 7 358 2 351 348 330 314 327 331 341 343 326 341 316 340 321 319 335 339 337 328 315 317 321 319 316 310 307 304 303 299
78 58 59 60 49 46 37 43 30 34 23 25 6 9 1 353 351 336 329 330 334 336 327 346 324 334 322 326 326 324 334 321 313 311 313 315 315 313 310 309 306 305 303
77 59 59 52 52 42 41 36 34 37 31 23 19 9 354 4 358 349 339 336 328 326 335 333 324 325 335 318 323 327 314 307 301 306 305 309 304 302 304 306 306 304 301
79 72 66 62 54 42 39 39 46 34 36 24 29 16 1 10 2 356 351 343 329 329 337 330 337 318 331 321 309 317 308 315 312 318 306 296 291 290 297 297 298 302 300
106 82 76 70 59 50 43 45 52 33 36 28 28 17 5 13 2 1 356 335 330 323 323 319 321 326 316 314 317 313 322 315 319 304 303 300 302 302 304 302 298 297 294
101 100 90 75 65 55 47 40 46 40 35 30 28 19 12 8 7 1 349 335 334 320 308 319 320 319 323 319 321 323 316 311 309 305 313 316 308 310 305 300 297 293 290
108 104 95 76 63 56 46 45 48 39 36 31 23 18 20 14 1 352 337 339 327 325 312 316 316 322 321 321 321 323 317 313 315 318 311 311 315 308 301 298 295 293 288
110 104 95 78 66 57 49 43 42 33 28 24 19 12 18 4 357 357 343 340 332 326 324 317 325 318 320 322 320 323 320 315 318 312 317 312 306 302 298 295 293 291 285
118 111 99 83 72 55 43 35 36 30 24 25 13 7 7 5 5 351 345 340 333 333 325 319 314 320 318 320 329 321 320 318 316 315 309 305 302 304 307 309 301 300 296
123 116 113 99 81 60 40 18 16 23 15 26 13 5 12 5 1 350 343 337 336 327 322 319 317 316 321 328 326 323 317 318 318 311 309 316 306 309 307 305 298 295 294
128 126 124 111 88 66 36 7 338 9 3 8 10 5 19 43 15 32 346 335 327 326 322 322 315 319 322 326 328 322 312 316 319 314 316 316 312 308 310 304 296 293 298
144 140 126 118 99 72 20 3 337 322 353 5 3 5 357 24 1 358 336 316 297 314 321 320 322 317 315 320 316 317 314 321 316 314 314 310 313 308 308 305 309 309 306
147 140 132 128 103 80 19 353 340 306 346 4 5 4 359 11 24 349 338 312 323 314 295 340 323 322 313 313 316 315 319 312 311 311 311 312 313 310 315 312 311 308 305
154 142 142 145 129 80 29 354 327 267 359 15 9 22 6 4 22 348 328 336 341 338 357 332 320 309 302 307 306 311 310 308 303 308 318 307 320 311 316 311 305 309 325
155 148 146 147 145 97 46 7 329 1 14 15 18 41 17 8 1 342 335 338 343 337 337 316 314 308 303 309 316 316 318 318 317 320 320 312 324 313 319 305 318 326 328
157 150 141 121 63 126 57 16 355 3 11 3 18 52 78 25 344 336 340 344 341 334 324 324 329 331 332 328 326 328 322 321 319 319 324 313 326 324 319 310 322 321 333